Weather Service Report


106 
ASUS44 KLUB 040010
RWRTX 
WEST TEXAS WEATHER ROUNDUP
NATIONAL WEATHER SERVICE LUBBOCK TX
600 PM CST SAT DEC 03 2016

NOTE: "FAIR" INDICATES FEW OR NO CLOUDS BELOW 12,000 FEET WITH NO
SIGNIFICANT WEATHER AND/OR OBSTRUCTIONS TO VISIBILITY.

TXZ004-006>008-010-012-014-016-OKZ002-040100-
TEXAS PANHANDLE/OKLAHOMA PANHANDLE
  
CITY           SKY/WX    TMP DP  RH WIND       PRES   REMARKS
AMARILLO       CLOUDY    39  38  96 CALM      29.99S                  
BORGER         CLOUDY    39  38  96 CALM      30.01R FOG              
CANADIAN       CLOUDY    42  41  97 E5        30.02S FOG              
DALHART        CLOUDY    38  36  92 S10       29.97S WCI  31          
DUMAS          CLOUDY    36  35  94 S5        29.98S WCI  32          
GUYMON         CLOUDY    38  36  92 S7        29.98F WCI  33          
HEREFORD       CLOUDY    40  39  97 CALM      29.99S                  
PAMPA          CLOUDY    41  39  93 CALM      30.01S                  
PERRYTON       CLOUDY    42  40  94 S5        30.00R                  
$$

TXZ026-029-035-045-048-040100-
SOUTHERN PANHANDLE/SOUTH PLAINS/ROLLING PLAINS
  
CITY           SKY/WX    TMP DP  RH WIND       PRES   REMARKS
CHILDRESS      CLOUDY    44  42  93 CALM      30.03R                  
SEMINOLE       RAIN      40  39  98 NE3       30.00F                  
LUBBOCK        DRIZZLE   41  39  93 N7        29.97S FOG              
PLAINVIEW      CLOUDY    38  38  99 E3        29.97S                  
SNYDER         CLOUDY    41  41  99 NE7       29.98S                  
$$

TXZ052-054-060>062-072-078-127-140-154-169-040100-
PERMIAN BASIN/CONCHO VALLEY/BIG COUNTRY/EDWARDS PLATEAU  
  
CITY           SKY/WX    TMP DP  RH WIND       PRES   REMARKS
ABILENE        CLOUDY    45  45 100 N7        29.97S FOG              
BIG SPRING     CLOUDY    42  41  97 N10       29.99S                  
BROWNWOOD      CLOUDY    48  46  93 NE6       29.94F                  
JUNCTION       CLOUDY    48  47  96 NE7       29.90R                  
MIDLAND        LGT RAIN  43  40  89 N9        29.98R FOG              
ODESSA         CLOUDY    42  39  89 NE8       29.98F                  
SAN ANGELO     CLOUDY    47  46  97 N8        29.95S FOG              
SONORA         CLOUDY    46  46 100 N12       29.96R                  
SWEETWATER     CLOUDY    44  44 100 N5        30.00R                  
WINK           LGT RAIN  43  42  97 N5        29.97F                  
$$

TXZ055-058-074-075-080-082-040100-
FAR WEST/SOUTHWEST MOUNTAINS/TRANS PECOS
  
CITY           SKY/WX    TMP DP  RH WIND       PRES   REMARKS
ALPINE         CLOUDY    37  37  98 NE9       30.02S WCI  31          
DRYDEN           N/A     49  46  90 N13       29.89R                  
EL PASO        MOCLDY    47  38  71 N6        29.95R                  
FORT STOCKTON  LGT RAIN  43  43 100 N10       29.98F                  
GUADALUPE PASS LGT RAIN  33  33 100 E31       29.93S VSB<1/4 WCI  19  
MARFA          CLOUDY    38  35  89 N17       29.93F WCI  28          
PECOS          DRIZZLE   41  40  96 NW9       30.00R                  
PRESIDIO       CLOUDY    50  42  75 N8        29.88S                  
$$

TXZ014-016-019-021>030-083-040100
TEXAS TECH WEST TEXAS MESONET/TEXAS PANHANDLE/NORTHERN SOUTH PLAINS
  
CITY           SKY/WX    TMP DP  RH WIND       PRES   REMARKS
ABERNATHY 5ENE   N/A     39  38  99 NE5       30.01S                  
AMARILLO 9NNE    N/A     37  37 100 N3        30.01S                  
AMARILLO 7SSE    N/A     38  37  98 E2        30.00F                  
AMHERST 1NE      N/A     39  38  97 E3        29.99S                  
BOOTLEG 11WNW    N/A     37  34  92 S3        30.00S                  
CANADIAN 6E      N/A     40  39  97 E3        30.02S                  
CAPROCK CYN SP   N/A     40  40  99 N7        30.00F                  
CHILDRESS 2NNE   N/A     42  42  97 NE3       30.03S                  
CLARENDON 2WSW   N/A     40  38  94 NE2       30.03S                  
CLAUDE 12SW      N/A     38  38 100 SE1       30.00S                  
DIMMITT 2NE      N/A     37  37  98 N3        29.99S                  
FLOYDADA 2NNE    N/A     38  38  99 NE5       29.99R WCI  35          
FRIONA 2NE       N/A     37  36  98 CALM      29.99F                  
GOODLETT 3W      N/A     44  42  95 NE6       30.02S                  
HART 3N          N/A     38  37  98 NE5       29.98F WCI  34          
HEREFORD 2NW     N/A     38  37  97 W2        30.01S                  
MCLEAN 1E        N/A     40  39  99 E6        30.02R                  
MEMPHIS 1NE      N/A     42  42  98 NE6       30.03F                  
MULESHOE 2SSW    N/A     38  38  97 NW2       29.99F                  
OLTON 6S         N/A     39  37  94 E3        30.00S                  
PALO DURO SP     N/A     38  37  97 SE3       30.00F                  
PAMPA 2E         N/A     38  38  99 E3        30.02R                  
PLAINVIEW 1S     N/A     39  38  99 NE5       29.99F                  
SILVERTON 7ESE   N/A     39  38  99 NE6       29.99F WCI  34          
TULIA 2ENE       N/A     37  37  99 NE5       30.00F WCI  34          
TURKEY 2WSW    LGT RAIN  41  41  99 N7        30.01F                  
UMBARGER 3NNE    N/A     38  37  97 E1        29.99F                  
$$

TXZ033>036-039>041-045>048-040100
TEXAS TECH WEST TEXAS MESONET/SOUTH PLAINS  
  
CITY           SKY/WX    TMP DP  RH WIND       PRES   REMARKS
AIKEN 3WSW       N/A     39  39 100 NE6       30.01R WCI  34          
ANDREWS 2NE    LGT RAIN  41  39  94 N6        30.01F                  
ANTON 6SSW       N/A     39  38  98 N6        29.98F WCI  35          
BROWNFIELD 2S  LGT RAIN  39  38  96 N3        30.01R                  
GAIL 2ESE        N/A     42  40  94 N7        30.00R                  
LAMESA 2SE       N/A     40  39  97 N5        30.01R                  
LEVELLAND 4S     N/A     39  37  91 NE6       29.99F WCI  35          
LUBBOCK 3WNW     N/A     40  40  98 N6        29.98F                  
MORTON 1ENE      N/A     40  38  92 NE3       29.98F                  
ODONNELL 1N      N/A     39  39  98 NE5       30.01R                  
PLAINS 3N        N/A     40  39  98 N5        29.99R                  
RALLS 1SE        N/A     40  38  95 NE7       29.99S                  
REESE CENTER     N/A     39  38  97 N7        29.99F WCI  34          
SEAGRAVES 1SW  LGT RAIN  39  39  98 N3        30.01R                  
SEMINOLE 2NNE    N/A     40  38  95 N3        30.00S                  
SLATON 2NE       N/A     40  39  99 NE6       29.99S                  
SNYDER 3E        N/A     41  40  99 N9        29.98S                  
SUNDOWN 8SW      N/A     40  39  97 SE2       29.99S                  
TAHOKA 3NNE      N/A     40  39  97 NE5       30.00R                  
WOLFFORTH 6SSW   N/A     40  40  97 N3        29.99S                  
$$

TXZ031-032-036>038-042>044-040100-
TEXAS TECH WEST TEXAS MESONET/ROLLING PLAINS 
  
CITY           SKY/WX    TMP DP  RH WIND       PRES   REMARKS
ASPERMONT 3NE    N/A     44  43  97 NE7       30.01R                  
FLUVANNA 3WNW    N/A     40  40  99 NE8       29.99R WCI  35          
GRAHAM 5SSW      N/A     40  39  97 NE9       29.99R WCI  33          
GUTHRIE 10WSW    N/A     42  41  96 N8        30.00S                  
HASKELL 1NW      N/A     44  44  98 NE9       30.00S                  
JAYTON 1SSE      N/A     42  42  97 NE6       29.99F                  
KNOX CITY 3NW    N/A     45  42  91 NE7       30.02S                  
LK A HENRY 1NW   N/A     42  40  93 NE9       29.99F                  
NORTHFIELD 1S    N/A     42  42  99 NE3       30.02F                  
ODELL 4ENE       N/A     44  44  99 E6        30.04S                  
PADUCAH 10SW     N/A     42  42  99 NE6       30.01S                  
POST 1NE         N/A     41  40  95 NE8       29.99S                  
RRING SPRGS 3N   N/A     40  40  99 NE6       30.00S                  
SEYMOUR 3NW      N/A     45  43  93 NE7       30.01S                  
SPUR 1W          N/A     42  40  95 NE7       30.00S                  
WEINERT 2NNE     N/A     44  43  95 NE6       30.02R                  
WHITE RVR 6NE    N/A     41  39  94 NE6       29.99S                  
$$

TXZ052-054-060>062-072-078-127-140-154-169-040100-
TEXAS TECH WEST TEXAS MESONET/PERMIAN BASIN/
CONCHO VALLEY/BIG COUNTRY/EDWARDS PLATEAU
  
CITY           SKY/WX    TMP DP  RH WIND       PRES   REMARKS
COYANOSA 2N      N/A     43  43 100 N5        30.01F                  
JUNCTION 1SSW    N/A     48  47  97 NE8       29.93R                  
MERTZON 3NNE     N/A     45  44  96 NE8       29.97S                  
SAN ANGELO 7NW   N/A     46  44  93 N3        29.97S                  
STRLNG CT 4WSW   N/A     44  42  95 N9        29.98S                  
ST LAWRNCE 5SW   N/A     43  42  97 N12       29.96S                  
SWEETWATR 11SW   N/A     42  42 100 NE8       29.99R                  
WALL 1E          N/A     46  44  92 N8        29.98R                  
$$

TXZ055-058-074-075-080-082-040100-
TEXAS TECH WEST TEXAS MESONET/FAR WEST/SOUTHWEST MOUNTAINS/TRANS PECOS
  
CITY           SKY/WX    TMP DP  RH WIND       PRES   REMARKS
PRSMN GAP BBNP   N/A     47  46  95 NE15      29.91R                  
GUADLPE MTN NP   N/A     33  33  98 E5        29.99S WCI  29          
$$
  

Return to Home page


Western Regional Climate Center, wrcc@dri.edu